Disclaimer

Please do not use the information listed here in-flight or in-navigation, as they are not provided to us by the airports but are provided by volunteers, so they might be outdated.

Search


Regions


Airport information page

Radio informations:
Common traffic adv. frequency (CTAF) - 122.8 MHz

Airport informations:
Latitude: 51° 31' 03.00" N
Longitude: 109° 10' 51.00" W
Elevation: 2277 feet - 694 meters
Operating hours: N/A
Operating agency: Municipal
Timezone: N/A
Fuel: 100/130 MIL Spec, low lead, aviation gasoline (BLUE)

Runway information:
07/25 - 3507 x 75 feet< - >1069 x 23 meters
17/35 - 2281 x 100 feet< - >695 x 30 meters

Recent METARs:
CYKY 200500Z 07010G17KT 360V100 12SM IC SCT017 OVC170 M16/M18 A2991 RMK SC4AC4 SLP187
CYKY 200626Z 06008G16KT 360V080 1 1/2SM -SN OVC026 M15/M18 A2992 RMK SN3SC5 SLP190
CYKY 200634Z 07012KT 360V100 4SM -SN BKN025 OVC090 M15/M18 A2992 RMK SC7AC1 SLP192

Airport on the map: